Iron Mountain, MI

7:26 AM CST on February 22, 2018 (GMT -0600)
Ford

Weather History for KIMT - March, 2013

Change the Weather History Date:

Sunday, March 24, 2013

  Actual Average Record
Temperature  
Mean Temperature 26 °F -  
Max Temperature 30 °F 40 °F 66 °F (1939)
Min Temperature 19 °F 18 °F -13 °F (1974)
Degree Days  
Heating Degree Days 40    
Moisture  
Dew Point 19 °F    
Average Humidity 71    
Maximum Humidity 81    
Minimum Humidity 63    
Precipitation  
Precipitation 0.00 in - - ()
Sea Level Pressure  
Sea Level Pressure 30.01 in    
Wind  
Wind Speed 7 mph (NNE)    
Max Wind Speed 14 mph    
Max Gust Speed 21 mph    
Visibility 10 miles    
Events      
Averages and records for this station are not official NWS values.
T = Trace of Precipitation, MM = Missing Value Source: NWS Daily Summary

Daily Weather History Graph

Daily Weather History Graph

Search for Another Location

Airport or City:

Trip Planner

Search our weather history database for the weather conditions in past years. The results will help you decide how hot, cold, wet, or windy it might be!

Date:

Astronomy

Mar. 24, 2013 Rise Set
Actual Time 6:47 AM CDT 7:10 PM CDT
Civil Twilight 6:17 AM CDT 7:40 PM CDT
Nautical Twilight 5:42 AM CDT 8:15 PM CDT
Astronomical Twilight 5:06 AM CDT 8:52 PM CDT
Moon 4:32 PM CDT (3/24) 5:05 AM CDT (3/24)
Length of Visible Light 13h 23m
Length of Day
12h 23m
Waxing Gibbous, 92% of the Moon is Illuminated
Mar 24
Waxing Gibbous
Mar 27
Full
Apr 2
Last Quarter
Apr 10
New
Apr 18
First Quarter

Hourly Weather History & Observations

Time (CDT) Temp. Windchill Dew Point Humidity Pressure Visibility Wind Dir Wind Speed Gust Speed Precip Events Conditions
12:54 AM 28.9 °F - 21.0 °F 72% 30.12 in 10.0 mi Calm Calm - N/A   Overcast
1:54 AM 28.0 °F 20.0 °F 19.9 °F 72% 30.13 in 10.0 mi North 8.1 mph - N/A   Overcast
2:54 AM 27.0 °F 18.7 °F 19.9 °F 75% 30.11 in 10.0 mi NNE 8.1 mph - N/A   Overcast
3:54 AM 26.1 °F 16.8 °F 19.0 °F 75% 30.10 in 10.0 mi NNE 9.2 mph - N/A   Overcast
4:54 AM 26.1 °F 20.5 °F 17.1 °F 69% 30.09 in 10.0 mi NNE 4.6 mph - N/A   Overcast
5:54 AM 25.0 °F 18.1 °F 19.0 °F 78% 30.09 in 10.0 mi North 5.8 mph - N/A   Overcast
6:19 AM 24.8 °F 16.9 °F 19.4 °F 80% 30.03 in 10.0 mi North 6.9 mph - N/A   Overcast
6:54 AM 25.0 °F 19.3 °F 18.0 °F 75% 30.08 in 10.0 mi NNE 4.6 mph - N/A   Overcast
7:42 AM 26.6 °F - 19.4 °F 74% 30.03 in 10.0 mi Calm Calm - N/A   Overcast
7:54 AM 26.1 °F 21.9 °F 19.0 °F 75% 30.08 in 10.0 mi North 3.5 mph - N/A   Overcast
8:54 AM 27.0 °F 23.0 °F 19.9 °F 75% 30.07 in 10.0 mi North 3.5 mph - N/A   Overcast
9:54 AM 28.9 °F 22.8 °F 21.9 °F 75% 30.06 in 10.0 mi NE 5.8 mph - N/A   Overcast
10:54 AM 30.0 °F 24.1 °F 24.1 °F 79% 30.05 in 10.0 mi NE 5.8 mph - N/A   Overcast
11:54 AM 30.9 °F 22.2 °F 21.0 °F 67% 30.04 in 10.0 mi NE 10.4 mph - N/A   Overcast
12:54 PM 30.9 °F 21.2 °F 21.0 °F 67% 30.01 in 10.0 mi NNE 12.7 mph 18.4 mph N/A   Overcast
1:54 PM 30.0 °F 21.1 °F 21.9 °F 72% 29.99 in 10.0 mi NE 10.4 mph - N/A   Overcast
2:54 PM 30.9 °F 22.2 °F 21.0 °F 67% 29.97 in 10.0 mi NNE 10.4 mph - N/A   Overcast
3:54 PM 30.0 °F 21.1 °F 21.0 °F 69% 29.95 in 10.0 mi NNE 10.4 mph - N/A   Overcast
4:54 PM 30.0 °F 20.0 °F 19.9 °F 66% 29.93 in 10.0 mi NNE 12.7 mph - N/A   Overcast
5:08 PM 30.2 °F 21.9 °F 19.4 °F 64% 29.88 in 10.0 mi NNE 9.2 mph - N/A   Overcast
5:24 PM 30.2 °F 20.2 °F 19.4 °F 64% 29.88 in 10.0 mi NNE 12.7 mph 20.7 mph N/A   Overcast
5:54 PM 28.9 °F 21.1 °F 19.0 °F 67% 29.95 in 10.0 mi NNE 8.1 mph - N/A   Overcast
6:09 PM 28.4 °F 20.4 °F 17.6 °F 64% 29.90 in 10.0 mi NE 8.1 mph - N/A   Overcast
6:54 PM 28.9 °F 18.6 °F 18.0 °F 64% 29.95 in 10.0 mi NNE 12.7 mph - N/A   Overcast
7:54 PM 27.0 °F 17.3 °F 16.0 °F 63% 29.96 in 10.0 mi NNE 10.4 mph - N/A   Mostly Cloudy
8:31 PM 24.8 °F 14.0 °F 17.6 °F 74% 29.91 in 10.0 mi North 11.5 mph - N/A   Mostly Cloudy
8:39 PM 24.8 °F 16.1 °F 15.8 °F 69% 29.92 in 10.0 mi North 8.1 mph - N/A   Scattered Clouds
8:54 PM 25.0 °F 13.1 °F 16.0 °F 69% 29.98 in 10.0 mi North 13.8 mph - N/A   Partly Cloudy
9:54 PM 23.0 °F 13.9 °F 16.0 °F 74% 29.98 in 10.0 mi NNW 8.1 mph - N/A   Clear
10:54 PM 21.9 °F 11.7 °F 16.0 °F 78% 29.96 in 10.0 mi NNW 9.2 mph - N/A   Clear
11:54 PM 19.9 °F 10.1 °F 15.1 °F 81% 29.96 in 10.0 mi NNW 8.1 mph - N/A   Clear